Weather History for St. Thomas, VI

Change the Weather History Date:

Sunday, March 2, 2014

  Actual Average Record
Temperature  
Mean Temperature 77 °F 79 °F  
Max Temperature 82 °F 85 °F 92 °F (1996)
Min Temperature 72 °F 73 °F 64 °F (1972)
Degree Days  
Heating Degree Days 0 0  
Month to date heating degree days 0 0  
Since 1 July heating degree days 0 0  
Cooling Degree Days 12 14  
Month to date cooling degree days 26 28  
Year to date cooling degree days 848 842  
Growing Degree Days 28 (Base 50)    
Moisture  
Dew Point 70 °F    
Average Humidity 78    
Maximum Humidity 87    
Minimum Humidity 69    
Precipitation  
Precipitation 0.01 in 0.05 in 1.31 in (1994)
Month to date precipitation 0.01 0.10  
Year to date precipitation 2.59 3.91  
Sea Level Pressure  
Sea Level Pressure 29.97 in    
Wind  
Wind Speed 6 mph (ESE)    
Max Wind Speed 16 mph    
Max Gust Speed 20 mph    
Visibility 10 miles    
Events Rain    
T = Trace of Precipitation, MM = Missing Value Source: NWS Daily Summary

Daily Weather History Graph

Daily Weather History Graph

Search for Another Location

Airport:

Trip Planner

Search our weather history database for the weather conditions in past years. The results will help you decide how hot, cold, wet, or windy it might be!

Date:

Astronomy

Mar. 02, 2014 Rise Set
Actual Time 6:38 AM AST 6:26 PM AST
Civil Twilight 6:16 AM AST 6:48 PM AST
Nautical Twilight 5:50 AM AST 7:13 PM AST
Astronomical Twilight 5:25 AM AST 7:38 PM AST
Moon 7:23 AM AST (3/2) 7:56 PM AST (3/2)
Length of Visible Light 12h 31m
Length of Day
11h 48m
New Moon, 2% of the Moon is Illuminated
Mar 2
New Moon
Mar 8
First Quarter
Mar 16
Full
Mar 23
Last Quarter
Mar 30
New

Hourly Weather History & Observations

Time (AST) Temp. Heat Index Dew Point Humidity Pressure Visibility Wind Dir Wind Speed Gust Speed Precip Events Conditions
12:53 AM 78.1 °F - 70.0 °F 76% 29.98 in 10.0 mi ESE 6.9 mph - N/A   Partly Cloudy
1:53 AM 75.9 °F - 71.1 °F 85% 29.96 in 10.0 mi East 4.6 mph - N/A   Scattered Clouds
2:06 AM 77.0 °F - 71.6 °F 83% 29.95 in 10.0 mi East 4.6 mph - N/A   Mostly Cloudy
2:53 AM 75.0 °F - 71.1 °F 87% 29.94 in 10.0 mi East 4.6 mph - 0.00 in   Mostly Cloudy
3:07 AM 75.2 °F - 69.8 °F 83% 29.94 in 10.0 mi Calm Calm - N/A   Mostly Cloudy
3:53 AM 75.0 °F - 70.0 °F 84% 29.94 in 10.0 mi Calm Calm - N/A   Mostly Cloudy
4:45 AM 75.2 °F - 69.8 °F 83% 29.93 in 10.0 mi Calm Calm - N/A   Scattered Clouds
4:53 AM 75.0 °F - 70.0 °F 84% 29.94 in 10.0 mi Calm Calm - N/A   Scattered Clouds
5:07 AM 73.4 °F - 69.8 °F 88% 29.93 in 10.0 mi East 3.5 mph - N/A   Mostly Cloudy
5:31 AM 73.4 °F - 69.8 °F 88% 29.94 in 10.0 mi East 3.5 mph - N/A   Scattered Clouds
5:53 AM 73.9 °F - 69.1 °F 85% 29.95 in 10.0 mi East 3.5 mph - N/A   Partly Cloudy
6:53 AM 73.9 °F - 69.1 °F 85% 29.97 in 10.0 mi Calm Calm - N/A   Partly Cloudy
7:53 AM 78.1 °F - 71.1 °F 79% 29.99 in 10.0 mi Calm Calm - N/A   Partly Cloudy
8:53 AM 80.1 °F 83.6 °F 71.1 °F 74% 30.01 in 10.0 mi South 3.5 mph - N/A   Mostly Cloudy
9:53 AM 79.0 °F - 70.0 °F 74% 30.03 in 10.0 mi SSW 3.5 mph - N/A   Overcast
10:02 AM 78.8 °F - 69.8 °F 74% 30.02 in 10.0 mi SW 4.6 mph - N/A   Overcast
10:46 AM 78.8 °F - 71.6 °F 78% 30.02 in 10.0 mi South 3.5 mph - N/A   Mostly Cloudy
10:53 AM 79.0 °F - 71.1 °F 77% 30.03 in 10.0 mi South 4.6 mph - N/A   Mostly Cloudy
11:01 AM 78.8 °F - 69.8 °F 74% 30.02 in 10.0 mi South 3.5 mph - N/A   Scattered Clouds
11:53 AM 79.0 °F - 70.0 °F 74% 30.01 in 10.0 mi SSE 9.2 mph - N/A   Mostly Cloudy
12:08 PM 78.8 °F - 69.8 °F 74% 30.00 in 10.0 mi SE 6.9 mph - N/A   Overcast
12:25 PM 78.8 °F - 69.8 °F 74% 29.99 in 10.0 mi SE 4.6 mph - 0.00 in Rain Light Rain
12:53 PM 79.0 °F - 71.1 °F 77% 29.98 in 10.0 mi South 6.9 mph - 0.00 in   Overcast
1:05 PM 78.8 °F - 69.8 °F 74% 29.97 in 10.0 mi South 5.8 mph - N/A   Overcast
1:53 PM 77.0 °F - 69.1 °F 76% 29.96 in 10.0 mi West 3.5 mph - 0.00 in Rain Light Rain
2:53 PM 81.0 °F 84.4 °F 70.0 °F 69% 29.94 in 10.0 mi WSW 4.6 mph - 0.01 in   Mostly Cloudy
3:09 PM 80.6 °F 83.9 °F 69.8 °F 70% 29.93 in 10.0 mi SSW 4.6 mph - N/A   Overcast
3:53 PM 80.1 °F 83.6 °F 71.1 °F 74% 29.94 in 10.0 mi Calm Calm - N/A   Overcast
4:02 PM 78.8 °F - 71.6 °F 78% 29.93 in 10.0 mi SSE 4.6 mph - N/A   Overcast
4:33 PM 80.6 °F 83.9 °F 69.8 °F 70% 29.94 in 10.0 mi NE 4.6 mph - N/A   Mostly Cloudy
4:53 PM 79.0 °F - 69.1 °F 72% 29.94 in 10.0 mi NNE 4.6 mph - N/A   Partly Cloudy
5:53 PM 79.0 °F - 69.1 °F 72% 29.95 in 10.0 mi ENE 8.1 mph - N/A   Clear
6:53 PM 78.1 °F - 69.1 °F 74% 29.96 in 10.0 mi NE 12.7 mph - N/A   Clear
7:53 PM 78.1 °F - 69.1 °F 74% 29.98 in 10.0 mi NE 13.8 mph - N/A   Clear
8:53 PM 77.0 °F - 68.0 °F 74% 29.99 in 10.0 mi NE 11.5 mph - N/A   Clear
9:53 PM 77.0 °F - 66.0 °F 69% 30.00 in 10.0 mi ENE 11.5 mph - N/A   Clear
10:53 PM 77.0 °F - 68.0 °F 74% 29.99 in 10.0 mi ENE 8.1 mph 18.4 mph N/A   Clear
11:53 PM 75.9 °F - 68.0 °F 76% 29.99 in 10.0 mi ENE 6.9 mph - N/A   Partly Cloudy